Change the Weather History Date:

Thursday, May 30, 2013

  Actual Average Record
Temperature  
Mean Temperature 62 °F -  
Max Temperature 69 °F 62 °F 87 °F (2002)
Min Temperature 55 °F 42 °F 33 °F (1990)
Degree Days  
Heating Degree Days 3    
Growing Degree Days 12 (Base 50)    
Moisture  
Dew Point 55 °F    
Average Humidity 82    
Maximum Humidity 88    
Minimum Humidity 73    
Precipitation  
Precipitation 0.09 in - - ()
Sea Level Pressure  
Sea Level Pressure 29.65 in    
Wind  
Wind Speed 6 mph (ENE)    
Max Wind Speed 17 mph    
Max Gust Speed 20 mph    
Visibility 9 miles    
Events Rain    
Averages and records for this station are not official NWS values.
T = Trace of Precipitation, MM = Missing Value Source: NWS Daily Summary

Daily Weather History Graph

Daily Weather History Graph

Search for Another Location

Airport or City:

Trip Planner

Search our weather history database for the weather conditions in past years. The results will help you decide how hot, cold, wet, or windy it might be!

Date:

Astronomy

May. 30, 2013 Rise Set
Actual Time 5:16 AM CDT 8:52 PM CDT
Civil Twilight 4:38 AM CDT 9:31 PM CDT
Nautical Twilight 3:47 AM CDT 10:22 PM CDT
Astronomical Twilight 2:37 AM CDT 11:33 PM CDT
Moon 12:39 AM CDT (5/30) 11:41 AM CDT (5/30)
Length of Visible Light 16h 53m
Length of Day
15h 36m
Waning Gibbous, 62% of the Moon is Illuminated
May 30
Waning Gibbous
May 31
Last Quarter
Jun 8
New
Jun 16
First Quarter
Jun 23
Full

Hourly Weather History & Observations

Time (CDT) Temp. Dew Point Humidity Pressure Visibility Wind Dir Wind Speed Gust Speed Precip Events Conditions
12:11 AM 57.2 °F 51.8 °F 82% 29.73 in 10.0 mi NE 3.5 mph - N/A   Overcast
12:31 AM 57.2 °F 51.8 °F 82% 29.73 in 10.0 mi NE 3.5 mph - N/A   Overcast
12:51 AM 57.2 °F 51.8 °F 82% 29.72 in 10.0 mi NE 3.5 mph - N/A   Overcast
1:11 AM 57.2 °F 53.6 °F 88% 29.72 in 10.0 mi ENE 6.9 mph - N/A   Overcast
1:31 AM 57.2 °F 51.8 °F 82% 29.72 in 10.0 mi ENE 6.9 mph - N/A   Overcast
1:51 AM 57.2 °F 51.8 °F 82% 29.72 in 10.0 mi NE 4.6 mph - N/A   Overcast
2:11 AM 57.2 °F 51.8 °F 82% 29.73 in 10.0 mi Calm Calm - N/A   Overcast
2:31 AM 57.2 °F 51.8 °F 82% 29.73 in 10.0 mi Calm Calm - N/A   Overcast
2:51 AM 57.2 °F 51.8 °F 82% 29.73 in 10.0 mi Calm Calm - N/A   Overcast
3:11 AM 57.2 °F 51.8 °F 82% 29.73 in 10.0 mi East 5.8 mph - N/A   Overcast
3:31 AM 55.4 °F 51.8 °F 88% 29.72 in 10.0 mi Calm Calm - N/A   Overcast
3:51 AM 55.4 °F 51.8 °F 88% 29.73 in 10.0 mi ENE 3.5 mph - N/A   Overcast
4:11 AM 55.4 °F 51.8 °F 88% 29.71 in 10.0 mi NE 4.6 mph - 0.02 in Rain Rain
4:31 AM 55.4 °F 50.0 °F 82% 29.72 in 10.0 mi ENE 5.8 mph - 0.06 in Rain Light Rain
4:51 AM 55.4 °F 50.0 °F 82% 29.71 in 7.0 mi NE 4.6 mph - 0.08 in Rain Light Rain
5:11 AM 55.4 °F 50.0 °F 82% 29.70 in 10.0 mi NE 5.8 mph - N/A   Overcast
5:32 AM 55.4 °F 50.0 °F 82% 29.69 in 7.0 mi ENE 8.1 mph - N/A   Overcast
5:51 AM 55.4 °F 50.0 °F 82% 29.69 in 7.0 mi ENE 9.2 mph - N/A   Overcast
6:11 AM 55.4 °F 50.0 °F 82% 29.70 in 4.0 mi ENE 10.4 mph - N/A   Haze
6:32 AM 55.4 °F 50.0 °F 82% 29.70 in 3.0 mi ENE 6.9 mph - N/A   Haze
6:51 AM 55.4 °F 50.0 °F 82% 29.70 in 4.0 mi NE 5.8 mph - N/A   Haze
7:11 AM 55.4 °F 51.8 °F 88% 29.70 in 2.0 mi ENE 4.6 mph - N/A   Overcast
7:32 AM 55.4 °F 51.8 °F 88% 29.70 in 3.0 mi ENE 8.1 mph - N/A   Haze
7:51 AM 55.4 °F 51.8 °F 88% 29.69 in 2.5 mi NE 6.9 mph - N/A   Haze
8:11 AM 57.2 °F 51.8 °F 82% 29.69 in 3.0 mi ENE 8.1 mph - N/A   Haze
8:32 AM 57.2 °F 51.8 °F 82% 29.68 in 5.0 mi NE 5.8 mph - N/A   Haze
8:51 AM 57.2 °F 53.6 °F 88% 29.68 in 7.0 mi NE 6.9 mph - N/A   Overcast
9:11 AM 57.2 °F 53.6 °F 88% 29.68 in 7.0 mi ENE 6.9 mph - N/A   Overcast
9:32 AM 59.0 °F 53.6 °F 82% 29.67 in 7.0 mi ENE 11.5 mph - N/A   Overcast
9:51 AM 60.8 °F 55.4 °F 82% 29.67 in 10.0 mi ENE 10.4 mph - N/A   Overcast
10:11 AM 60.8 °F 55.4 °F 82% 29.68 in 10.0 mi East 8.1 mph - N/A   Overcast
10:31 AM 60.8 °F 55.4 °F 82% 29.68 in 10.0 mi ENE 10.4 mph - N/A   Overcast
10:51 AM 60.8 °F 55.4 °F 82% 29.69 in 10.0 mi ENE 6.9 mph - N/A   Overcast
11:12 AM 60.8 °F 55.4 °F 82% 29.67 in 10.0 mi ENE 8.1 mph - N/A   Overcast
11:31 AM 62.6 °F 57.2 °F 82% 29.67 in 10.0 mi ENE 8.1 mph - N/A   Mostly Cloudy
11:51 AM 64.4 °F 59.0 °F 83% 29.66 in 10.0 mi ENE 8.1 mph - N/A   Scattered Clouds
12:12 PM 66.2 °F 59.0 °F 78% 29.65 in 10.0 mi ENE 17.3 mph - N/A   Clear
12:31 PM 68.0 °F 60.8 °F 78% 29.65 in 10.0 mi ENE 12.7 mph 19.6 mph N/A   Scattered Clouds
12:51 PM 66.2 °F 60.8 °F 83% 29.65 in 10.0 mi SE 6.9 mph - N/A   Mostly Cloudy
1:12 PM 66.2 °F 60.8 °F 83% 29.65 in 10.0 mi ENE 8.1 mph - N/A   Mostly Cloudy
1:31 PM 64.4 °F 59.0 °F 83% 29.65 in 10.0 mi ESE 3.5 mph - 0.01 in Rain Light Rain
1:51 PM 64.4 °F 59.0 °F 83% 29.64 in 10.0 mi NE 9.2 mph - 0.01 in   Overcast
2:11 PM 64.4 °F 59.0 °F 83% 29.64 in 10.0 mi ENE 6.9 mph - N/A   Mostly Cloudy
2:31 PM 66.2 °F 59.0 °F 78% 29.63 in 10.0 mi NE 9.2 mph - N/A   Scattered Clouds
2:52 PM 64.4 °F 59.0 °F 83% 29.63 in 10.0 mi NE 6.9 mph - N/A   Scattered Clouds
3:11 PM 66.2 °F 60.8 °F 83% 29.63 in 10.0 mi ENE 9.2 mph - N/A   Scattered Clouds
3:31 PM 64.4 °F 59.0 °F 83% 29.62 in 10.0 mi ENE 8.1 mph - N/A   Light Drizzle
3:52 PM 66.2 °F 60.8 °F 83% 29.62 in 10.0 mi NE 6.9 mph - N/A   Scattered Clouds
4:11 PM 64.4 °F 59.0 °F 83% 29.62 in 10.0 mi East 10.4 mph - N/A   Scattered Clouds
4:31 PM 64.4 °F 57.2 °F 77% 29.61 in 10.0 mi NE 6.9 mph 16.1 mph N/A   Scattered Clouds
4:52 PM 66.2 °F 60.8 °F 83% 29.60 in 10.0 mi NE 9.2 mph - N/A   Scattered Clouds
5:11 PM 68.0 °F 60.8 °F 78% 29.60 in 10.0 mi NE 8.1 mph - N/A   Clear
5:31 PM 69.8 °F 60.8 °F 73% 29.60 in 10.0 mi NE 5.8 mph - N/A   Clear
5:52 PM 69.8 °F 60.8 °F 73% 29.59 in 10.0 mi ENE 6.9 mph - N/A   Clear
6:11 PM 69.8 °F 60.8 °F 73% 29.59 in 10.0 mi ENE 8.1 mph - N/A   Clear
6:31 PM 69.8 °F 60.8 °F 73% 29.58 in 10.0 mi NE 8.1 mph - N/A   Clear
6:52 PM 69.8 °F 60.8 °F 73% 29.57 in 10.0 mi ENE 9.2 mph - N/A   Clear
7:11 PM 66.2 °F 59.0 °F 78% 29.58 in 10.0 mi East 5.8 mph - N/A   Clear
7:31 PM 62.6 °F 55.4 °F 77% 29.60 in 10.0 mi East 5.8 mph - N/A   Scattered Clouds
7:51 PM 59.0 °F 53.6 °F 82% 29.60 in 10.0 mi ENE 6.9 mph - N/A   Overcast
8:11 PM 60.8 °F 55.4 °F 82% 29.61 in 10.0 mi NE 5.8 mph - N/A   Mostly Cloudy
8:31 PM 60.8 °F 55.4 °F 82% 29.61 in 10.0 mi NE 9.2 mph - N/A   Overcast
8:51 PM 60.8 °F 55.4 °F 82% 29.59 in 10.0 mi NE 9.2 mph - N/A   Scattered Clouds
9:11 PM 60.8 °F 55.4 °F 82% 29.59 in 10.0 mi ENE 8.1 mph - N/A   Mostly Cloudy
9:32 PM 60.8 °F 55.4 °F 82% 29.59 in 10.0 mi NE 5.8 mph - N/A   Overcast
9:51 PM 60.8 °F 55.4 °F 82% 29.60 in 10.0 mi NE 6.9 mph - N/A   Scattered Clouds
10:11 PM 60.8 °F 55.4 °F 82% 29.59 in 10.0 mi NE 5.8 mph - N/A   Mostly Cloudy
10:32 PM 60.8 °F 55.4 °F 82% 29.59 in 10.0 mi ENE 6.9 mph - N/A   Overcast
10:51 PM 60.8 °F 55.4 °F 82% 29.57 in 10.0 mi NE 6.9 mph - N/A   Overcast
11:11 PM 60.8 °F 55.4 °F 82% 29.56 in 10.0 mi NNE 9.2 mph - N/A   Overcast
11:32 PM 59.0 °F 55.4 °F 88% 29.56 in 10.0 mi NE 8.1 mph - N/A   Overcast
11:51 PM 59.0 °F 55.4 °F 88% 29.56 in 10.0 mi NE 9.2 mph - N/A   Overcast